{"data":{"norad_id":57493,"intl_designator":"2023-112A","name":"GALAXY 37 (G-37)","alt_names":[],"object_type":"PAYLOAD","status":"ACTIVE","operator":null,"country":"ITSO","launch_date":"2023-08-03","launch_site_code":"AFETR","launch_vehicle":null,"mission":null,"orbit_class":"UNKNOWN","rcs_meters":null,"size_class":null,"mass_kg":null,"dimensions":null,"purposes":["comms"],"wikipedia_slug":null,"has_3d_model":false,"image_url":null,"decayed_at":null,"tle_current":{"epoch":"2026-05-25T03:50:38.783040Z","epoch_age_seconds":71798,"freshness":"FRESH","line1":"1 57493U 23112A   26145.16017110  .00000046  00000+0  00000+0 0  9990","line2":"2 57493   0.0174 328.4278 0002035  87.5457 117.4410  1.00271768 10317","mean_motion":1.00271768,"eccentricity":0.0002035,"inclination_deg":0.0174,"raan_deg":328.4278,"arg_perigee_deg":87.5457,"mean_anomaly_deg":117.441,"bstar":0,"rev_number":1031,"period_min":1436.0971475042,"perigee_km":35778.019202985,"apogee_km":35795.180250832,"semimajor_km":42164.736726908,"source":"CELESTRAK","updated_at":"2026-05-25T13:38:14.340181Z"}}}